カタログに戻る

COSMOS 1275 DEB

運用中PO
NORAD 13018·DEBRIS·🇷🇺 Russia

打ち上げ Jun 4, 1981 から Plesetsk Cosmodrome

Loading…

次のパス (今後24時間)

TLE

最新Source: Space-Track

元期: Sep 14, 2026, 02:09 UTC

1 13018U 81053EQ  26257.09016638  .00000783  00000-0  54940-3 0  9998
2 13018  82.6713 292.0139 0048799  32.9617 356.4269 13.96570189257641

AllMySatでCOSMOS 1275 DEBをリアルタイム追跡

Download on the App Store